Presure
225 147 297 283 320 296 149 207 145 289 224 166 255 116 110 126 140 105 146 107 141 132 126 121 117 124 139 130 130 134 130 124 131 134 135 125 105 119 117 115 110 122 123 130 133 100 101 115 141
248 301 242 286 301 207 246 336 329 283 133 126 251 141 133 120 129 129 133 118 142 125 140 132 117 125 75 130 137 135 135 126 131 108 131 130 109 109 119 115 101 145 138 116 135 133 141 137 122
234 280 267 217 304 282 179 174 255 272 315 200 263 102 117 148 121 128 135 140 137 122 105 134 125 138 121 122 135 131 131 134 127 139 137 98 122 137 126 120 112 141 97 122 116 119 118 104 118
279 270 332 306 296 312 113 95 139 262 292 295 261 131 138 238 129 148 152 121 129 84 137 148 114 129 139 118 119 131 141 135 101 120 106 107 98 121 110 117 135 103 139 124 147 118 138 139 123
311 348 323 304 289 230 216 211 301 116 291 267 239 122 150 214 101 241 92 136 116 118 151 179 137 133 132 128 146 131 137 108 127 127 114 114 150 118 128 131 141 117 116 143 121 115 124 120 137
381 331 311 262 282 294 117 275 281 128 108 263 253 177 237 131 141 146 137 141 137 112 125 163 161 119 109 144 144 130 115 147 144 116 126 132 147 139 146 124 142 112 112 111 132 128 114 145 117
367 322 302 260 104 144 207 270 264 255 250 253 201 136 139 146 223 194 112 141 141 151 148 139 158 146 137 144 126 102 137 141 125 121 142 124 134 142 134 126 134 121 121 130 130 148 121 124 129
333 307 295 260 284 277 103 109 269 141 129 225 248 218 149 224 216 149 150 231 134 232 151 148 138 138 157 169 111 144 151 110 107 111 127 133 127 123 137 120 122 123 124 124 146 116 124 128 134
327 302 276 262 276 263 262 111 112 117 219 118 124 150 202 227 140 116 118 151 119 168 112 141 139 130 118 122 127 135 117 145 133 129 125 121 141 138 131 110 118 120 121 120 119 126 136 128 128
314 299 261 266 276 259 258 262 268 99 109 117 117 146 194 133 125 128 167 121 180 178 139 194 148 148 134 154 134 147 116 129 118 126 128 133 118 125 117 119 130 118 117 121 122 131 128 132 146
309 277 261 265 274 256 252 259 267 131 248 230 107 242 231 125 117 127 173 132 140 131 142 103 217 148 159 137 126 126 118 116 104 116 130 136 132 122 120 123 124 117 123 128 127 128 133 195 192
293 260 266 261 259 254 248 249 243 266 265 224 233 226 236 244 139 143 146 138 228 127 127 133 139 157 143 161 158 108 118 124 120 122 120 123 118 117 124 131 121 128 126 127 122 190 206 202 194
276 257 268 256 255 268 245 247 250 250 240 256 235 250 202 196 137 204 155 202 132 165 197 126 142 139 149 142 136 118 130 121 119 116 123 122 126 117 121 114 131 129 121 196 206 202 160 196 204
260 254 265 254 254 257 249 249 250 247 245 240 228 221 239 225 125 120 148 218 149 220 154 141 188 129 153 137 124 164 121 122 116 116 128 124 121 124 126 133 133 164 150 204 184 199 159 212 199
260 248 255 249 244 254 263 254 254 239 243 260 241 185 232 223 217 139 140 129 233 162 127 149 131 128 140 146 126 118 117 119 118 127 125 122 129 127 125 127 204 219 176 183 193 211 204 193 219
259 241 254 249 241 248 240 243 252 242 246 259 222 213 213 201 135 141 132 145 149 115 128 136 165 144 141 118 121 124 121 122 120 128 125 126 130 126 132 199 200 195 205 206 210 205 211 202 195
245 246 251 260 242 246 211 241 252 231 239 218 215 210 151 174 214 134 145 219 193 136 131 235 124 126 167 126 127 120 118 124 128 126 129 128 136 183 132 202 207 217 220 215 219 194 187 202 197
263 254 253 258 243 246 246 239 231 174 246 122 217 215 210 209 213 143 128 220 125 184 228 126 117 199 117 133 117 124 127 127 129 124 136 182 131 133 203 219 186 198 216 221 197 202 203 197 199
260 277 259 255 242 247 236 236 226 226 232 232 146 213 132 135 201 162 219 208 213 222 235 226 120 118 131 142 126 122 119 130 136 180 134 133 173 201 192 202 207 194 211 208 201 192 198 235 195
264 251 250 244 241 243 244 150 238 235 172 232 214 196 217 129 222 218 211 208 219 215 217 122 125 126 124 121 123 130 131 140 199 190 200 213 211 206 210 221 206 198 189 193 194 204 205 224 203
262 234 234 247 233 250 230 233 241 219 166 183 211 146 222 182 168 174 174 133 122 129 125 123 122 128 130 171 216 182 153 141 212 210 210 215 211 207 201 201 199 197 199 206 210 217 207 196 201
248 226 222 223 222 244 232 236 203 203 124 218 228 215 213 139 159 134 122 118 121 193 134 131 187 211 201 205 196 208 211 211 205 208 212 205 199 198 198 203 203 205 204 214 206 198 202 199 199
236 243 203 219 226 223 222 230 121 239 223 139 127 127 131 198 216 214 211 125 127 127 134 201 208 197 199 214 213 203 207 206 215 222 209 212 219 213 209 223 217 212 208 202 205 195 199 199 197
228 250 239 201 219 213 213 218 219 217 227 226 219 223 218 217 204 203 210 221 210 201 200 204 178 161 236 209 208 215 209 211 214 221 218 221 211 204 219 208 202 206 204 201 196 193 195 196 201
257 219 224 231 220 216 220 217 214 209 218 218 224 224 224 221 217 213 213 219 226 231 214 215 207 206 204 206 205 207 213 212 215 215 200 214 224 206 206 205 201 203 200 197 199 194 198 195 192
219 241 216 219 223 219 213 218 229 227 223 228 221 217 220 226 231 227 227 226 225 213 216 216 213 209 202 205 211 207 210 205 203 220 219 208 206 204 205 200 200 197 197 194 194 203 200 190 191
228 219 277 213 214 213 218 214 216 214 211 214 226 232 228 220 224 221 216 210 159 209 209 212 214 215 211 210 214 201 201 205 222 209 208 204 207 200 197 196 197 194 195 201 203 192 190 192 193
214 220 230 258 210 221 218 217 224 221 214 213 218 218 221 222 221 217 215 215 213 214 212 210 209 206 202 198 199 204 209 201 201 202 206 212 194 196 194 197 193 202 206 195 191 191 193 197 197
217 218 218 243 268 205 214 216 224 233 214 212 209 210 212 211 210 216 219 217 219 216 206 203 202 203 202 206 204 198 195 196 197 212 199 199 197 194 198 197 209 195 191 194 185 192 196 199 210
177 207 214 238 271 244 204 206 221 212 214 211 218 224 226 215 214 212 213 205 205 204 201 210 211 210 205 201 201 202 205 211 214 201 198 196 197 199 201 199 191 190 201 184 198 199 208 203 210
Wind_Speed
75 67 60 47 39 33 40 46 41 43 65 70 72 49 42 62 61 47 69 49 65 63 55 48 45 46 63 59 60 64 63 57 60 62 62 46 40 41 44 41 45 50 47 49 54 42 47 56 65
76 64 58 40 34 27 25 29 33 44 63 53 63 65 62 44 57 56 63 55 70 55 59 58 47 51 19 60 69 65 62 56 57 38 56 50 42 42 49 48 34 64 58 48 56 57 63 63 59
71 59 54 34 33 21 33 37 37 38 38 55 60 42 39 69 51 57 69 73 50 48 44 58 54 66 50 50 59 59 58 61 54 61 56 35 44 64 44 48 47 51 40 47 54 55 57 51 60
67 58 29 34 30 14 34 34 51 26 39 45 55 50 59 56 61 72 81 36 42 32 63 72 48 60 66 50 50 58 68 58 35 40 34 44 41 44 49 49 50 49 57 52 62 59 64 66 62
57 21 26 26 26 20 22 27 22 38 37 47 53 38 52 70 23 47 29 53 50 46 71 80 71 63 59 54 70 52 57 39 48 49 42 43 70 47 45 46 58 56 52 63 57 60 62 63 71
16 20 22 23 20 12 34 16 26 43 37 39 46 46 55 52 67 68 51 62 58 46 51 71 79 50 35 62 59 45 45 71 70 48 55 51 63 57 68 45 57 51 57 59 55 58 63 77 68
12 17 18 19 31 32 19 26 27 31 40 36 48 44 45 59 64 57 34 58 53 69 69 59 70 68 52 56 42 36 54 60 46 45 57 47 51 60 44 45 47 56 57 58 57 78 66 68 69
14 16 13 18 13 12 33 30 29 30 31 30 43 53 56 59 56 61 56 61 36 49 71 67 57 45 67 83 42 63 68 40 41 43 48 49 53 50 46 50 51 54 56 56 73 62 67 69 71
11 12 10 13 13 16 16 30 37 33 36 33 33 32 47 59 31 27 26 52 41 43 43 58 52 44 39 46 44 44 44 59 48 45 44 45 56 48 46 47 51 56 58 59 63 67 75 71 72
13 7 17 11 14 13 14 16 23 34 32 34 34 31 41 27 29 27 48 43 60 67 58 52 64 50 57 70 42 50 44 43 46 45 46 46 45 46 47 49 51 54 59 63 65 70 69 73 89
13 10 12 6 11 16 16 13 14 43 29 41 37 40 42 38 42 40 44 46 49 46 55 20 39 66 75 40 41 45 43 46 42 45 50 48 53 49 50 53 55 55 61 66 68 71 71 88 85
9 16 9 8 4 17 17 17 25 14 19 38 41 43 40 41 39 37 47 42 35 42 43 45 50 73 53 63 70 34 44 47 47 48 49 52 51 50 55 60 58 66 65 67 65 89 84 89 84
8 13 5 7 8 9 19 16 15 17 28 25 35 33 37 31 30 34 40 34 42 45 51 42 46 44 45 43 48 45 45 49 49 52 53 57 55 53 58 53 68 68 61 83 84 78 81 91 91
12 10 6 2 3 7 14 12 18 20 25 30 35 35 25 30 37 37 34 41 57 34 44 43 55 43 64 50 43 53 49 49 55 55 54 57 59 58 63 73 75 84 66 82 89 89 86 86 90
9 7 8 2 4 3 6 11 16 23 23 22 28 26 25 26 29 37 39 36 29 63 44 54 40 50 46 55 48 50 50 55 58 60 58 60 61 60 64 69 78 77 85 83 85 90 94 88 87
7 9 7 4 6 5 12 14 14 19 20 25 26 29 28 30 34 38 37 51 39 34 45 44 62 47 57 43 50 54 58 58 61 64 62 60 65 63 73 82 84 87 90 95 91 89 92 86 84
15 13 9 4 6 9 14 15 14 20 23 26 28 30 33 31 33 34 37 31 34 44 48 35 44 43 54 53 56 57 57 62 63 65 66 64 71 78 74 82 87 87 78 88 81 83 82 83 84
13 10 8 3 9 11 16 18 22 18 24 8 29 30 32 34 32 40 41 27 37 31 31 46 37 42 45 55 51 60 64 66 67 62 70 72 70 75 75 69 80 78 76 80 81 85 87 85 88
15 10 2 4 10 14 18 21 23 24 26 29 31 34 29 34 31 25 34 30 32 27 28 32 46 48 40 56 61 58 56 68 71 65 71 70 68 76 83 78 74 74 79 80 79 78 84 76 84
10 9 5 5 8 12 17 19 24 23 16 27 32 30 34 25 30 24 24 27 30 30 33 48 54 57 56 55 60 66 66 69 60 63 66 64 67 69 71 72 70 74 73 77 80 87 87 76 80
13 12 11 4 3 10 13 14 22 18 21 26 28 33 29 33 27 29 37 42 39 50 49 49 52 57 61 52 42 57 70 67 55 57 58 57 61 64 67 68 70 74 78 81 81 78 78 80 80
12 9 7 6 5 7 12 17 18 19 26 23 24 26 25 37 38 43 37 37 42 37 51 55 42 39 42 44 45 50 50 53 54 56 56 58 60 63 66 69 72 74 76 72 75 76 77 79 81
19 9 13 2 5 7 9 11 26 13 19 35 33 33 36 32 30 32 33 46 49 50 51 38 42 45 48 52 49 50 52 55 55 55 54 56 60 63 64 61 64 69 69 71 72 76 78 82 83
23 12 6 12 6 9 12 12 14 16 17 22 25 26 28 31 33 32 34 37 39 37 40 46 48 48 45 45 48 49 52 56 58 56 54 54 55 58 54 62 66 67 68 71 73 79 81 83 85
21 18 12 11 10 11 14 17 18 20 22 24 27 30 30 31 32 34 35 35 34 33 36 37 41 43 46 47 47 50 50 54 57 55 55 55 51 56 59 62 66 67 69 74 74 79 82 85 88
33 19 17 11 14 13 15 17 13 18 20 23 28 28 30 31 29 29 28 29 31 35 36 36 35 41 45 48 49 50 50 54 57 54 53 55 57 60 62 65 69 68 68 76 79 81 83 88 91
39 27 14 18 17 19 18 21 19 20 24 24 23 26 27 29 26 26 28 29 43 33 35 38 38 40 45 47 47 51 55 55 51 59 57 57 59 64 67 67 72 72 74 75 78 84 89 93 96
29 29 23 18 22 23 25 26 23 22 26 26 27 27 27 29 30 29 31 31 33 34 35 37 39 41 44 48 51 53 53 56 59 61 61 58 64 67 72 69 73 75 74 79 82 87 89 94 98
35 25 30 25 20 25 29 29 24 23 25 27 29 32 33 33 34 36 35 35 36 35 36 38 41 44 45 47 50 55 59 61 62 58 65 63 65 68 75 76 73 75 80 83 83 90 96 100 100
25 23 30 31 21 21 29 31 26 23 21 26 32 34 36 37 37 37 37 36 36 37 40 41 43 45 45 49 52 56 58 59 56 62 65 65 66 67 70 73 78 82 82 84 91 95 97 100 103
Wind_Direction
301 293 311 290 297 281 267 253 264 233 238 249 239 242 243 255 247 246 244 246 249 251 251 252 259 261 255 259 258 257 259 263 266 269 272 278 281 279 280 282 280 281 287 289 292 290 289 285 285
316 316 301 293 292 273 257 221 219 229 253 255 233 240 241 249 254 255 249 245 245 247 246 255 257 258 288 256 255 258 261 263 266 273 271 277 275 279 283 285 287 289 283 287 288 288 284 283 283
313 313 306 280 290 272 268 259 237 228 219 242 226 243 245 236 255 248 248 248 251 258 258 257 257 251 254 254 262 262 263 265 267 269 275 278 273 275 281 278 282 289 288 285 282 279 281 290 285
317 312 289 287 287 263 264 260 253 237 219 210 221 245 241 232 251 242 240 245 257 247 249 243 252 257 256 255 257 262 260 267 270 266 278 279 280 273 270 272 289 285 291 281 288 280 286 285 288
318 285 284 278 282 260 263 238 208 252 215 213 221 241 237 230 267 224 249 257 241 249 239 243 248 251 254 255 253 266 269 265 270 267 272 273 277 275 273 280 280 272 275 293 282 291 283 282 288
287 279 275 271 272 249 275 219 203 261 254 215 217 236 227 248 240 241 251 251 245 246 250 243 242 256 263 259 256 263 267 263 266 273 272 277 281 275 286 272 283 280 280 284 283 280 284 287 281
275 267 271 265 273 269 238 198 208 209 209 200 223 246 240 238 230 234 256 244 245 245 246 248 242 254 256 263 255 262 267 269 269 273 275 274 277 285 282 271 281 275 279 282 282 290 278 279 279
285 275 263 285 248 222 260 267 202 255 246 210 206 217 240 223 231 239 248 233 240 233 245 250 254 254 256 249 265 263 264 271 278 277 271 277 280 276 282 273 275 275 277 278 292 279 278 279 285
261 273 289 278 241 225 217 259 249 251 216 247 249 234 217 216 229 245 234 250 235 240 256 252 260 252 259 255 260 260 265 263 265 267 270 274 277 279 277 274 276 278 280 281 281 281 287 283 283
262 253 274 264 222 211 208 203 205 251 253 248 250 238 219 222 226 222 230 235 239 234 247 244 254 255 261 258 259 266 269 266 273 278 278 281 278 279 274 278 280 278 282 283 284 286 284 286 289
272 296 283 244 212 205 207 214 213 245 212 208 250 203 212 228 239 244 232 235 239 245 253 256 232 258 253 270 267 259 268 270 272 278 278 284 281 279 280 282 283 282 284 285 286 287 288 291 293
288 290 282 235 219 203 199 198 196 211 214 208 206 209 216 215 235 238 237 236 217 241 246 257 264 254 261 259 263 268 267 270 277 277 278 279 278 280 285 288 284 289 288 289 288 286 293 292 298
292 291 232 215 218 213 199 196 192 197 205 200 204 203 215 221 230 222 240 226 240 247 229 254 266 264 261 268 265 269 264 272 276 279 278 280 282 283 287 283 292 290 288 286 288 289 291 298 295
309 302 270 226 238 209 202 195 198 192 199 199 203 205 200 205 236 244 236 221 247 229 244 264 243 263 261 263 273 256 272 274 278 280 279 282 283 286 291 294 293 286 288 287 292 293 294 294 297
321 348 11 198 122 142 181 173 186 200 197 192 198 217 196 195 205 241 244 243 206 243 252 261 259 256 264 269 264 273 277 276 280 279 282 283 287 291 290 291 277 277 286 289 292 290 291 293 293
12 326 3 197 166 159 178 184 183 196 193 192 195 199 203 213 233 240 241 254 240 259 251 257 253 253 260 277 275 270 276 278 281 279 282 284 288 292 292 278 285 284 285 285 288 289 290 291 294
351 343 342 216 177 159 192 185 174 196 199 203 197 205 226 221 211 235 236 215 235 247 250 228 262 270 255 263 264 273 279 277 277 279 284 288 290 282 293 280 280 279 282 283 285 288 289 294 295
343 328 323 155 157 157 169 182 187 199 191 281 201 205 215 227 223 233 247 231 255 233 232 261 277 241 279 263 279 274 272 276 280 287 286 275 290 290 277 275 285 284 286 287 285 287 292 294 296
21 23 172 186 166 167 182 190 205 193 196 195 230 208 247 235 227 248 228 234 240 239 238 233 273 277 275 269 274 283 291 285 282 270 288 289 283 271 276 280 285 282 288 287 289 292 294 294 295
40 27 46 139 167 182 182 220 203 198 214 197 210 210 218 240 232 240 237 242 250 255 254 273 266 267 273 284 286 282 283 281 266 269 268 277 277 278 281 282 284 285 289 291 292 290 290 292 292
24 31 38 49 209 154 185 194 201 217 224 224 219 239 222 234 246 247 243 251 272 259 266 273 281 272 273 276 267 273 278 283 273 272 275 275 276 278 281 283 284 287 287 286 288 288 290 292 291
357 355 18 6 314 193 212 205 217 225 266 219 213 223 219 248 244 251 276 281 282 260 271 273 264 266 271 275 268 279 276 274 270 272 273 275 279 282 284 284 284 283 285 287 289 291 290 290 291
347 315 338 327 301 280 264 238 263 240 226 261 271 274 272 235 230 239 246 274 272 272 272 271 270 273 271 274 273 272 273 273 276 275 276 276 276 279 282 284 283 284 287 289 290 291 292 292 295
340 331 287 317 257 276 278 277 265 256 237 229 237 238 238 238 241 250 259 259 260 268 272 272 273 279 278 269 274 277 279 281 282 283 284 283 283 283 283 282 285 287 290 291 292 292 294 298 299
349 330 322 284 281 261 260 255 249 260 259 254 246 246 249 247 245 249 254 260 265 267 259 263 267 270 273 278 278 280 281 283 284 286 287 285 287 282 284 286 288 292 294 294 296 295 298 299 300
337 333 308 287 278 265 268 266 260 252 248 251 256 258 257 257 257 260 262 264 264 255 262 265 269 273 277 279 280 281 282 283 286 285 286 286 288 289 290 293 295 296 297 296 297 298 298 299 300
348 323 318 292 278 272 255 260 261 261 261 261 266 263 259 262 257 256 258 259 277 266 271 277 277 276 276 278 280 284 285 285 283 286 288 290 291 293 294 296 297 298 297 297 297 299 301 301 302
337 327 327 294 290 272 275 275 271 258 262 265 269 270 270 270 270 268 268 270 272 276 277 278 277 276 278 282 283 282 281 284 286 288 289 289 292 294 294 297 297 299 296 297 298 298 299 301 301
337 330 325 335 278 282 277 275 274 270 270 275 275 277 275 273 275 276 275 277 278 278 280 278 277 277 277 277 279 283 285 286 288 283 289 290 293 295 295 298 299 296 296 297 300 301 303 303 301
274 314 320 333 296 262 281 282 277 274 269 275 279 273 270 274 277 283 285 289 286 284 281 279 276 276 278 277 277 277 278 277 279 285 289 293 294 294 295 296 296 298 299 300 302 303 303 302 301